Location: 22
(39.7117°N, 89.5929°W)
Time: 17:19:05
(UTC-05:00)

Gurwin Techsat 1B - Pass Details

Date: 01 April 2023
Orbit: 811 x 813 km, 98.9° (Epoch: 06 June)

Event Time Altitude Azimuth Distance (km) Brightness Sun altitude
Rises 03:47:15 0° 15° (NNE) 3,345 12.5 -31.8°
Reaches altitude 10° 03:49:36 10° 17° (NNE) 2,410 11.7 -31.4°
Enters shadow 03:54:04 62° 39° (NE) 917 9.0 -30.8°
